Wind_Speed
28 28 28 29 29 29 28 27 27 26 27 28 27 27 26 26 25 24 23 22 21 20 19 19 18 17 16 15 15 14 13 12 12 11 10 9 9 9 9 9 9 9 9 10 10 9 9 8 8
28 28 29 30 31 30 29 28 28 28 29 29 29 28 28 27 26 25 25 24 23 22 21 20 20 19 18 17 16 16 15 14 14 13 12 11 11 11 11 11 10 11 11 11 11 11 11 10 10
28 28 29 31 31 30 29 29 29 29 30 31 30 30 29 28 27 27 26 26 25 23 23 21 21 21 20 19 18 18 17 16 16 15 14 14 13 13 12 12 12 12 12 12 12 12 12 11 11
28 28 30 31 30 30 30 30 31 31 31 31 32 32 30 29 29 28 28 28 27 26 25 23 22 22 21 21 20 19 19 18 18 17 16 16 15 14 14 14 13 13 13 13 13 13 13 13 13
29 29 30 31 30 30 30 31 31 31 32 31 32 32 32 31 30 30 29 28 27 27 26 25 24 24 24 23 22 21 20 20 20 19 18 17 17 16 16 16 15 15 15 15 15 15 15 15 15
29 30 30 30 30 30 30 31 31 31 31 31 32 33 32 32 32 31 30 29 29 28 27 26 26 26 25 24 24 23 22 22 22 21 20 19 19 18 18 18 17 17 17 17 17 17 16 16 17
29 29 29 28 28 29 30 30 30 31 31 30 31 31 31 31 30 30 29 29 28 28 28 28 27 27 27 26 26 25 24 24 24 23 23 22 21 21 21 20 20 19 19 19 19 19 19 18 18
28 29 28 27 28 28 28 29 30 30 31 31 31 31 30 30 30 30 29 29 28 28 28 28 28 28 28 27 27 27 27 26 26 25 25 24 23 23 23 22 22 21 21 20 21 21 21 21 21
27 28 27 27 28 29 28 29 30 30 30 30 30 31 31 31 30 30 30 29 29 29 29 29 29 29 29 30 29 28 28 28 28 27 27 26 26 26 25 24 24 24 23 22 22 22 22 23 23
27 27 27 27 29 30 30 30 30 30 30 31 31 31 32 32 31 31 31 30 30 30 31 30 29 29 30 31 30 30 30 29 29 29 29 28 28 27 27 26 26 26 26 25 25 24 24 24 24
28 28 27 28 29 30 31 31 31 31 31 31 32 32 32 32 32 33 33 32 31 31 31 31 30 30 30 31 31 31 32 31 31 31 31 31 31 30 29 29 29 29 28 27 27 27 26 26 26
28 28 28 28 28 29 30 30 31 31 31 32 32 32 32 32 32 32 32 32 32 32 32 32 31 31 31 31 31 32 32 33 33 33 33 33 33 32 31 31 31 31 30 29 29 29 28 28 28
27 27 28 28 28 28 29 30 31 31 31 32 33 31 32 31 32 33 33 33 33 33 33 33 33 32 33 33 33 34 34 34 35 35 35 34 34 34 34 33 33 33 32 32 31 31 30 29 29
28 27 27 27 28 28 29 30 31 30 31 32 33 31 32 31 32 34 35 35 35 35 34 34 34 34 34 34 34 35 34 35 35 36 36 37 36 36 35 35 34 34 34 33 33 33 32 31 31
28 27 27 28 28 29 30 31 31 30 31 31 32 32 32 32 32 33 35 35 36 36 36 36 36 36 36 36 35 35 35 35 36 36 37 38 38 37 37 36 36 36 36 36 36 35 35 34 33
27 27 27 27 28 29 30 30 29 29 30 31 31 31 32 32 33 34 34 35 36 37 37 38 38 37 37 37 37 36 37 37 37 38 38 38 39 39 39 39 38 38 38 38 38 37 37 37 36
26 27 27 27 27 28 29 29 30 29 29 31 32 32 32 34 34 35 35 36 37 39 40 40 40 39 39 39 39 39 38 38 39 39 39 39 40 40 41 40 40 40 40 40 40 39 39 38 38
25 27 27 27 27 27 28 29 29 29 30 30 31 32 33 35 35 35 37 38 39 41 42 42 42 41 41 42 41 41 41 40 40 40 40 39 40 40 41 42 42 42 42 42 41 41 41 40 40
23 25 26 26 25 26 27 28 29 29 30 30 31 33 34 34 35 36 38 39 40 42 44 44 44 44 44 43 43 43 42 42 42 41 41 41 41 41 42 43 44 44 44 43 43 43 42 42 42
22 23 25 24 25 25 26 27 28 28 29 29 29 31 33 34 34 36 39 40 41 43 45 45 45 45 46 45 45 45 44 43 43 43 43 44 43 44 44 45 46 46 45 45 44 43 42 43 43
22 22 22 24 25 26 26 27 26 26 28 29 30 31 32 33 35 36 38 40 41 43 44 46 46 46 47 46 45 46 46 46 45 45 44 44 45 45 45 45 46 46 46 46 46 44 44 44 44
21 21 22 23 25 26 26 27 27 26 27 28 30 30 32 33 35 37 38 40 41 41 43 45 46 46 46 46 46 46 46 46 47 46 46 46 47 46 46 46 47 47 48 48 46 46 46 45 45
21 21 21 23 24 25 24 26 25 26 26 28 29 30 31 34 35 37 38 40 41 42 43 45 46 46 46 46 46 47 47 46 47 47 47 47 47 48 48 48 47 47 47 48 47 47 47 47 47
20 20 21 22 23 23 23 25 24 25 26 27 28 28 30 32 34 36 37 39 41 43 43 44 45 46 46 48 47 47 48 47 47 48 48 48 48 49 49 49 48 48 48 48 48 47 47 47 48
18 19 20 21 22 23 23 26 26 25 25 27 27 28 29 31 32 35 36 38 40 41 41 42 44 45 47 48 49 48 47 48 48 48 49 49 49 49 49 50 50 49 48 47 48 49 48 47 47
19 20 20 22 22 22 23 25 25 26 26 27 28 29 30 31 32 34 35 35 37 38 40 41 42 44 46 48 49 49 48 48 49 49 49 49 49 50 50 50 50 50 49 47 47 48 49 48 47
19 20 21 22 23 23 23 24 24 25 26 27 28 28 30 30 31 33 34 35 35 36 39 41 41 43 44 46 49 49 49 48 49 49 49 49 49 50 50 50 50 49 48 48 48 48 48 48 47
19 19 20 21 23 24 24 23 22 24 25 26 27 28 29 30 31 33 34 34 35 36 37 39 39 41 42 45 46 46 47 47 48 47 47 48 48 48 48 49 49 49 49 49 49 48 48 48 47
18 19 20 21 23 24 24 22 22 23 26 27 28 30 31 32 32 32 33 34 34 35 36 37 38 39 41 42 43 44 45 45 45 45 45 45 45 46 46 47 47 48 49 49 49 49 49 48 48
19 19 20 21 22 23 24 23 24 25 27 28 29 30 32 33 32 32 33 33 34 34 35 36 36 38 39 40 41 43 43 43 44 44 44 44 45 45 46 46 46 47 47 47 47 46 46 46 47
Wind_Direction
261 260 260 257 255 254 253 250 247 246 245 245 245 245 245 244 243 245 246 246 247 248 248 247 244 243 243 243 244 245 246 247 248 248 249 250 253 259 262 262 264 266 267 268 266 268 271 277 279
260 258 258 257 255 255 254 250 246 245 244 244 244 244 244 244 243 244 245 246 247 247 247 246 244 243 243 244 243 244 245 246 247 248 250 252 253 258 263 262 265 267 266 267 266 270 273 276 279
258 258 258 256 255 254 252 250 247 244 244 244 244 244 244 245 243 244 245 246 246 245 245 245 245 245 243 243 243 244 244 245 247 247 250 252 255 256 259 261 264 265 264 264 265 267 271 273 278
258 258 258 256 254 252 250 249 247 245 244 244 244 245 245 245 244 244 246 247 246 245 245 245 246 244 243 243 244 245 245 246 248 248 250 252 254 257 259 262 265 266 264 262 262 264 268 269 274
258 259 259 256 253 251 250 249 248 247 245 244 244 245 245 245 245 245 246 247 247 246 245 245 246 246 245 243 243 244 245 246 247 248 250 251 253 256 259 263 266 267 264 262 262 265 269 272 274
260 261 259 258 254 251 250 249 248 246 244 243 243 244 244 244 245 245 246 246 247 246 245 246 246 246 245 243 243 244 246 247 248 249 250 251 253 256 258 262 265 266 265 264 265 267 269 273 274
262 262 260 257 253 251 249 248 248 246 244 243 243 244 242 242 244 245 246 247 248 247 246 246 246 246 245 245 245 245 246 248 249 250 251 252 254 256 258 260 263 265 266 266 267 269 270 272 272
261 262 260 256 253 250 247 247 246 246 244 243 243 243 241 241 244 244 245 247 247 247 246 246 246 246 246 245 245 246 247 248 249 250 252 253 254 256 258 260 261 264 267 267 268 269 270 271 272
262 262 261 257 252 250 247 246 246 246 245 244 244 242 242 241 243 243 244 246 246 245 245 246 245 246 246 246 246 247 247 249 249 250 251 252 254 256 257 259 261 263 266 267 268 269 270 271 272
263 263 262 258 254 250 248 246 246 246 245 245 244 243 243 242 243 244 244 246 245 245 245 245 246 246 245 247 248 249 250 250 250 250 251 252 254 255 257 259 261 263 265 266 268 269 270 271 272
263 262 261 259 256 252 249 246 245 244 246 246 245 244 243 243 244 244 243 245 246 247 245 245 246 245 244 246 248 250 251 252 252 252 252 252 254 255 256 258 260 262 264 266 267 269 270 271 271
262 262 261 259 257 255 252 248 246 244 246 246 245 244 244 246 245 245 243 244 245 247 246 247 245 244 245 247 249 250 252 252 253 253 253 253 253 254 255 257 259 261 263 265 267 269 269 270 271
262 261 261 259 257 256 253 251 248 246 246 246 244 244 245 247 247 245 243 244 246 247 246 244 243 246 246 248 250 251 252 252 253 254 255 254 254 254 255 256 258 260 262 264 266 267 268 270 271
262 261 259 259 257 257 255 253 251 249 247 246 246 247 247 247 248 246 245 245 247 247 245 243 244 246 248 249 251 251 252 253 254 255 255 255 254 254 257 257 258 259 261 263 265 267 269 270 271
263 261 258 257 258 258 256 254 251 250 248 246 247 248 248 249 249 248 247 247 247 246 244 244 245 247 249 251 254 253 253 253 254 255 256 255 253 254 256 256 257 259 261 263 265 266 268 270 271
263 261 259 258 259 258 257 253 250 251 251 248 248 248 250 250 249 249 249 249 247 246 245 246 247 250 251 252 254 255 254 254 256 256 256 255 253 254 255 255 257 259 261 263 264 266 267 269 270
262 261 260 259 259 259 258 254 250 252 252 250 249 249 249 249 249 249 250 250 248 247 246 247 250 252 252 254 255 255 256 256 256 257 257 256 255 255 254 254 256 258 260 262 265 266 268 268 269
265 263 261 259 258 260 260 257 252 253 253 252 250 250 248 249 251 251 251 251 250 249 249 250 252 253 252 253 254 255 256 257 257 257 257 256 256 257 255 255 257 259 260 262 264 265 267 268 269
270 267 264 261 259 260 260 258 254 256 254 253 252 252 251 252 251 252 251 251 251 251 252 253 253 253 253 254 254 255 255 257 258 258 258 257 257 258 258 257 258 259 260 262 264 265 266 268 269
273 270 266 262 261 262 261 259 258 256 254 254 254 253 254 256 254 254 253 252 253 254 253 253 254 254 254 255 255 255 255 256 258 258 258 258 258 258 259 261 260 260 259 261 263 264 266 267 269
273 273 269 264 261 263 265 261 259 257 254 255 255 256 256 259 258 258 257 254 253 254 254 254 254 254 255 256 255 256 255 255 256 257 257 257 258 258 259 262 261 261 260 262 264 265 267 269 270
272 271 270 266 264 264 265 264 258 259 256 257 257 258 257 260 261 260 260 258 256 256 256 255 254 255 256 256 255 255 255 255 255 256 257 258 259 259 260 261 263 263 264 264 265 266 268 269 270
274 272 271 271 271 267 265 267 264 261 259 259 260 261 260 261 262 262 262 261 260 259 258 256 255 255 256 256 257 256 256 257 257 256 257 258 259 259 260 262 264 265 265 265 264 265 267 267 269
276 273 273 274 275 271 267 268 270 267 264 264 264 266 266 264 264 265 265 265 263 262 261 260 258 257 256 256 257 258 258 258 257 257 258 259 260 261 262 263 265 265 265 265 264 265 266 267 269
274 274 275 277 277 275 274 273 273 273 271 273 272 272 273 272 270 271 272 270 267 266 265 263 260 258 257 257 256 257 258 258 258 257 258 260 260 261 262 263 264 265 266 266 266 266 266 267 269
277 276 277 279 279 279 279 281 278 276 275 276 277 277 276 275 273 273 273 273 271 269 269 267 263 260 259 258 257 257 259 259 259 259 259 260 261 262 262 263 263 264 265 266 267 267 268 268 269
278 276 276 279 280 281 283 281 280 279 278 278 280 281 280 276 274 274 275 276 275 273 271 270 266 262 260 259 258 257 258 259 260 260 260 260 261 261 261 262 262 263 264 265 266 267 268 269 269
280 280 279 279 282 284 284 285 286 282 279 279 281 282 281 280 279 277 278 277 276 275 274 273 269 264 262 261 260 259 259 259 259 259 259 259 261 261 261 262 262 263 263 264 266 267 268 269 269
279 278 279 281 282 284 286 288 289 289 285 283 282 282 282 282 282 281 280 278 278 277 276 275 271 267 265 264 263 261 261 261 260 259 260 261 261 260 260 262 262 262 263 265 266 267 268 269 270
279 280 279 282 282 284 286 288 290 290 290 288 285 283 283 284 283 281 280 281 280 279 278 277 274 270 267 266 263 262 262 262 262 262 260 261 261 261 261 262 262 263 264 265 266 267 269 270 270
Height
5786 5786 5787 5788 5789 5790 5791 5794 5796 5798 5800 5802 5804 5806 5809 5812 5815 5819 5819 5819 5821 5822 5823 5824 5825 5827 5828 5829 5831 5832 5833 5834 5835 5836 5837 5838 5839 5840 5841 5841 5842 5842 5843 5843 5843 5844 5844 5845 5845
5780 5781 5782 5782 5782 5783 5786 5789 5791 5792 5794 5796 5799 5801 5804 5806 5809 5812 5813 5815 5816 5818 5819 5821 5822 5823 5825 5826 5828 5829 5830 5831 5832 5833 5834 5836 5837 5838 5839 5839 5840 5840 5840 5840 5841 5842 5842 5843 5843
5774 5774 5775 5775 5776 5778 5780 5783 5785 5786 5788 5790 5793 5795 5799 5801 5804 5806 5809 5810 5812 5814 5815 5817 5818 5820 5821 5823 5824 5826 5827 5828 5829 5831 5832 5833 5834 5835 5836 5836 5837 5837 5837 5838 5838 5839 5840 5840 5841
5768 5768 5768 5769 5770 5773 5774 5775 5777 5779 5781 5784 5787 5790 5793 5796 5799 5801 5803 5805 5808 5809 5811 5813 5814 5816 5817 5819 5820 5822 5824 5825 5826 5827 5829 5830 5831 5832 5833 5834 5834 5834 5834 5835 5836 5836 5837 5838 5838
5761 5761 5761 5762 5764 5766 5767 5768 5770 5772 5775 5778 5781 5784 5787 5790 5793 5795 5798 5800 5802 5804 5806 5808 5810 5811 5813 5815 5817 5818 5820 5821 5823 5824 5825 5826 5828 5829 5830 5830 5831 5831 5832 5832 5833 5834 5834 5835 5836
5755 5754 5755 5756 5758 5760 5761 5761 5763 5765 5768 5771 5774 5777 5781 5784 5786 5789 5792 5794 5796 5799 5801 5803 5805 5806 5808 5810 5812 5814 5816 5817 5819 5820 5821 5822 5824 5825 5826 5827 5827 5828 5828 5829 5830 5831 5831 5832 5832
5749 5749 5749 5750 5751 5753 5754 5755 5756 5759 5762 5765 5767 5770 5774 5778 5780 5783 5785 5788 5790 5793 5795 5797 5799 5801 5803 5805 5807 5809 5811 5812 5814 5816 5817 5818 5819 5821 5822 5823 5823 5824 5825 5825 5826 5827 5827 5828 5828
5742 5743 5743 5744 5745 5746 5747 5748 5750 5752 5755 5759 5761 5764 5768 5771 5774 5777 5780 5782 5784 5787 5789 5791 5793 5796 5798 5800 5801 5803 5805 5807 5809 5811 5812 5813 5815 5816 5817 5818 5819 5820 5821 5821 5822 5823 5823 5824 5824
5736 5737 5737 5738 5738 5740 5741 5742 5744 5746 5749 5752 5755 5758 5761 5764 5767 5770 5773 5776 5778 5780 5782 5785 5787 5790 5792 5794 5795 5797 5800 5802 5803 5805 5806 5808 5809 5811 5812 5813 5814 5815 5816 5817 5817 5818 5818 5819 5819
5729 5730 5730 5731 5731 5733 5734 5735 5738 5740 5743 5746 5749 5751 5754 5757 5760 5763 5766 5768 5771 5773 5776 5778 5781 5783 5785 5787 5789 5791 5793 5796 5797 5799 5800 5802 5803 5805 5806 5808 5809 5810 5811 5812 5812 5813 5813 5814 5814
5722 5723 5723 5723 5724 5725 5727 5729 5731 5733 5737 5739 5742 5744 5747 5750 5753 5755 5758 5761 5764 5766 5769 5771 5774 5777 5779 5781 5783 5785 5787 5789 5791 5792 5794 5796 5797 5798 5800 5801 5803 5804 5805 5806 5807 5807 5808 5808 5808
5716 5716 5716 5716 5716 5717 5719 5721 5724 5727 5730 5732 5734 5737 5740 5742 5745 5747 5750 5753 5756 5759 5762 5764 5767 5770 5773 5775 5776 5778 5780 5782 5784 5785 5787 5789 5790 5792 5793 5795 5796 5798 5799 5800 5800 5801 5801 5802 5802
5709 5710 5709 5710 5710 5711 5712 5714 5717 5720 5722 5724 5727 5730 5733 5735 5737 5740 5743 5745 5748 5751 5754 5757 5760 5763 5766 5768 5769 5771 5773 5775 5777 5778 5779 5781 5783 5784 5786 5787 5789 5791 5792 5793 5793 5794 5794 5795 5795
5703 5703 5703 5704 5704 5704 5706 5708 5710 5713 5715 5718 5720 5723 5726 5728 5730 5732 5735 5738 5741 5744 5747 5750 5753 5756 5758 5761 5762 5764 5765 5767 5769 5770 5771 5773 5775 5776 5778 5780 5781 5783 5784 5785 5786 5787 5787 5788 5788
5696 5697 5698 5698 5698 5699 5700 5702 5705 5707 5709 5711 5714 5717 5719 5721 5723 5725 5728 5730 5733 5736 5739 5742 5745 5748 5751 5753 5754 5756 5757 5759 5760 5761 5762 5764 5766 5768 5770 5772 5773 5775 5776 5777 5778 5779 5780 5780 5781
5690 5691 5692 5693 5692 5692 5695 5697 5699 5700 5703 5706 5708 5710 5713 5715 5717 5718 5721 5723 5725 5728 5731 5734 5737 5740 5742 5745 5746 5748 5749 5751 5752 5753 5753 5755 5757 5760 5761 5763 5765 5766 5768 5769 5770 5771 5771 5772 5773
5684 5684 5685 5687 5686 5687 5688 5690 5693 5694 5696 5699 5702 5704 5706 5708 5710 5711 5713 5715 5718 5720 5723 5725 5728 5731 5733 5735 5737 5739 5740 5742 5743 5744 5745 5746 5748 5750 5752 5754 5756 5758 5759 5760 5761 5762 5763 5763 5764
5679 5679 5679 5680 5681 5681 5682 5685 5687 5689 5691 5693 5695 5697 5699 5700 5702 5703 5705 5707 5710 5712 5714 5717 5720 5722 5724 5726 5728 5729 5731 5733 5734 5735 5736 5738 5740 5741 5743 5745 5746 5748 5749 5751 5751 5752 5753 5754 5754
5673 5673 5674 5675 5675 5676 5677 5679 5682 5683 5685 5686 5688 5690 5692 5693 5695 5696 5697 5699 5701 5703 5705 5708 5710 5712 5714 5716 5718 5720 5721 5723 5725 5726 5727 5729 5730 5732 5733 5735 5737 5738 5740 5741 5741 5742 5743 5744 5744
5668 5668 5669 5669 5669 5670 5672 5674 5676 5677 5678 5680 5681 5682 5684 5685 5687 5688 5689 5690 5692 5694 5696 5698 5700 5701 5704 5705 5707 5709 5711 5713 5715 5716 5717 5719 5720 5722 5723 5725 5726 5727 5729 5730 5731 5732 5733 5733 5733
5664 5663 5664 5664 5665 5665 5666 5669 5671 5671 5672 5672 5674 5675 5676 5677 5678 5679 5681 5682 5683 5685 5686 5687 5689 5691 5693 5694 5696 5698 5700 5702 5704 5706 5707 5709 5711 5712 5713 5714 5715 5716 5718 5719 5720 5721 5721 5722 5722
5660 5659 5659 5659 5659 5660 5661 5662 5666 5665 5665 5666 5667 5667 5667 5668 5669 5670 5671 5671 5673 5674 5675 5676 5678 5679 5681 5683 5685 5687 5689 5691 5693 5695 5697 5698 5700 5701 5702 5703 5704 5705 5706 5707 5708 5709 5709 5710 5711
5655 5655 5655 5654 5654 5655 5656 5656 5660 5659 5659 5659 5659 5659 5659 5660 5660 5661 5661 5661 5662 5663 5664 5665 5666 5668 5670 5672 5673 5675 5677 5679 5682 5683 5685 5686 5688 5689 5690 5691 5692 5693 5694 5695 5696 5697 5697 5698 5699
5651 5651 5650 5650 5650 5651 5652 5651 5652 5652 5652 5652 5652 5651 5651 5651 5651 5651 5651 5651 5651 5652 5653 5654 5655 5656 5657 5659 5661 5663 5665 5668 5670 5672 5673 5675 5676 5677 5678 5680 5680 5681 5682 5683 5684 5684 5685 5686 5686
5647 5647 5647 5646 5646 5647 5646 5646 5647 5646 5645 5644 5644 5644 5643 5643 5642 5641 5641 5640 5640 5641 5641 5642 5643 5644 5645 5647 5649 5651 5653 5655 5657 5659 5661 5663 5664 5665 5666 5667 5668 5669 5670 5671 5671 5672 5672 5673 5673
5642 5643 5643 5642 5641 5641 5641 5640 5642 5640 5639 5638 5637 5636 5636 5635 5634 5632 5631 5630 5630 5630 5630 5630 5630 5632 5633 5634 5636 5638 5640 5642 5644 5646 5648 5650 5651 5653 5654 5655 5656 5657 5657 5658 5658 5659 5659 5660 5660
5638 5638 5638 5637 5636 5636 5636 5636 5636 5633 5633 5632 5631 5629 5628 5627 5625 5624 5623 5622 5620 5619 5619 5618 5618 5619 5620 5621 5622 5624 5627 5629 5631 5633 5635 5636 5638 5639 5640 5642 5643 5644 5645 5646 5646 5647 5647 5647 5647
5633 5633 5633 5632 5630 5630 5630 5630 5630 5627 5626 5625 5624 5622 5620 5619 5617 5615 5614 5613 5612 5610 5608 5607 5607 5607 5607 5608 5610 5611 5613 5616 5618 5620 5622 5623 5625 5626 5628 5629 5631 5632 5633 5633 5634 5634 5634 5634 5634
5629 5629 5628 5627 5626 5625 5624 5627 5624 5621 5619 5618 5617 5614 5612 5611 5609 5608 5606 5604 5602 5601 5599 5597 5596 5596 5596 5596 5597 5599 5601 5603 5605 5607 5609 5611 5612 5614 5615 5617 5618 5619 5620 5621 5621 5621 5621 5621 5621
5624 5624 5623 5623 5622 5620 5619 5623 5618 5615 5612 5610 5609 5607 5605 5603 5601 5599 5597 5595 5593 5591 5589 5588 5587 5586 5586 5585 5586 5587 5588 5590 5592 5594 5596 5598 5600 5601 5603 5604 5605 5606 5607 5608 5608 5609 5609 5609 5609